Mercury, NV

7:24 AM PDT on April 23, 2017 (GMT -0700)
Mercury

Weather History for KDRA - April, 2014

Change the Weather History Date:

Friday, April 18, 2014

  Actual Average Record
Temperature  
Mean Temperature 70 °F 60 °F  
Max Temperature 78 °F 74 °F 92 °F (1989)
Min Temperature 61 °F 46 °F 36 °F (2002)
Degree Days  
Heating Degree Days 0    
Cooling Degree Days 4    
Growing Degree Days 20 (Base 50)    
Moisture  
Dew Point 26 °F    
Average Humidity 18    
Maximum Humidity 27    
Minimum Humidity 9    
Precipitation  
Precipitation 0.00 in 0.01 in 0.34 in (1995)
Month to date precipitation 0.22  
Year to date precipitation 2.50  
Sea Level Pressure  
Sea Level Pressure 29.74 in    
Wind  
Wind Speed 11 mph (SSW)    
Max Wind Speed 25 mph    
Max Gust Speed 31 mph    
Visibility 10 miles    
Events      
T = Trace of Precipitation, MM = Missing Value Source: NWS Daily Summary

Daily Weather History Graph

Daily Weather History Graph

Search for Another Location

Airport or City:

Trip Planner

Search our weather history database for the weather conditions in past years. The results will help you decide how hot, cold, wet, or windy it might be!

Date:

Astronomy

Apr. 18, 2014 Rise Set
Actual Time 6:06 AM PDT 7:21 PM PDT
Civil Twilight 5:39 AM PDT 7:48 PM PDT
Nautical Twilight 5:07 AM PDT 8:20 PM PDT
Astronomical Twilight 4:34 AM PDT 8:53 PM PDT
Moon 11:06 PM PDT (4/18) 8:35 AM PDT (4/18)
Length of Visible Light 14h 08m
Length of Day
13h 14m
Waning Gibbous, 86% of the Moon is Illuminated
Apr 18
Waning Gibbous
Apr 22
Last Quarter
Apr 28
New
May 6
First Quarter
May 14
Full

Hourly Weather History & Observations

Time (PDT) Temp. Dew Point Humidity Pressure Visibility Wind Dir Wind Speed Gust Speed Precip Events Conditions
12:52 AM 72.0 °F 21.9 °F 15% 29.69 in 10.0 mi SSW 16.1 mph 25.3 mph N/A   Clear
1:52 AM 71.1 °F 23.0 °F 16% 29.68 in 10.0 mi SW 15.0 mph - N/A   Clear
2:52 AM 70.0 °F 25.0 °F 18% 29.69 in 10.0 mi South 9.2 mph 20.7 mph N/A   Clear
3:52 AM 66.9 °F 27.0 °F 22% 29.70 in 10.0 mi SW 9.2 mph - N/A   Clear
4:52 AM 64.9 °F 27.0 °F 24% 29.70 in 10.0 mi Calm Calm - N/A   Clear
5:52 AM 61.0 °F 26.1 °F 26% 29.70 in 10.0 mi East 6.9 mph - N/A   Clear
6:52 AM 64.9 °F 23.0 °F 20% 29.71 in 10.0 mi East 5.8 mph - N/A   Clear
7:52 AM 66.2 °F 23.0 °F 19% 29.85 in 10.0 mi SSE 3.5 mph - N/A   Clear
8:52 AM 69.1 °F 28.9 °F 22% 29.75 in 10.0 mi Calm Calm - N/A   Clear
9:52 AM 71.1 °F 28.0 °F 20% 29.75 in 10.0 mi Calm Calm - N/A   Clear
10:52 AM 73.0 °F 26.1 °F 17% 29.75 in 10.0 mi West 5.8 mph - N/A   Clear
11:52 AM 75.0 °F 21.0 °F 13% 29.76 in 10.0 mi SW 12.7 mph 21.9 mph N/A   Clear
12:52 PM 77.0 °F 23.0 °F 13% 29.75 in 10.0 mi SW 25.3 mph 31.1 mph N/A   Clear
1:52 PM 75.9 °F 24.1 °F 15% 29.74 in 10.0 mi SSW 20.7 mph 28.8 mph N/A   Clear
2:52 PM 77.0 °F 26.1 °F 15% 29.73 in 10.0 mi SW 18.4 mph 26.5 mph N/A   Clear
3:52 PM 75.9 °F 28.0 °F 17% 29.71 in 10.0 mi SW 20.7 mph 25.3 mph N/A   Clear
4:52 PM 75.9 °F 28.9 °F 18% 29.71 in 10.0 mi SW 20.7 mph 25.3 mph N/A   Clear
5:52 PM 75.9 °F 26.1 °F 16% 29.72 in 10.0 mi SSW 20.7 mph 27.6 mph N/A   Clear
6:52 PM 73.0 °F 26.1 °F 17% 29.73 in 10.0 mi SSW 17.3 mph 25.3 mph N/A   Clear
7:52 PM 70.0 °F 28.0 °F 21% 29.76 in 10.0 mi SW 13.8 mph - N/A   Clear
8:52 PM 69.1 °F 28.9 °F 22% 29.77 in 10.0 mi SW 9.2 mph - N/A   Clear
9:52 PM 69.1 °F 28.9 °F 22% 29.78 in 10.0 mi SW 8.1 mph - N/A   Clear
10:52 PM 68.0 °F 30.0 °F 24% 29.78 in 10.0 mi SSW 12.7 mph - N/A   Clear
11:52 PM 64.9 °F 30.0 °F 27% 29.79 in 10.0 mi West 5.8 mph - N/A   Clear